This demonstration page uses our WeatherBlox Daily Observations layout. Learn more.

Left ArrowRight Arrow

Hourly Observations for October 5, 2016

Temp ( °F °C ) Dew Point ( °F °C ) Humidity (%) Winds ( mph kmh ) Pressure ( in mb ) Visibility ( mi km ) Precip ( " mm )
12:15 am 00:15 Clear 52 11 37 3 58 58 NW 7 11 29.77 1008 10 16 0.00 0.00
12:35 am 00:35 Clear 52 11 36 2 54 54 WNW 6 9 29.77 1008 10 16 0.00 0.00
12:55 am 00:55 Clear 52 11 36 2 54 54 WNW 8 13 29.77 1008 10 16 0.00 0.00
1:15 am 01:15 Clear 52 11 37 3 58 58 NW 8 13 29.77 1008 10 16 0.00 0.00
1:35 am 01:35 Clear 52 11 36 2 54 54 NW 9 15 29.77 1008 10 16 0.00 0.00
1:55 am 01:55 Clear 46 8 36 2 66 66 WNW 8 13 29.80 1009 10 16 0.00 0.00
2:15 am 02:15 Clear 46 8 36 2 66 66 WNW 7 11 29.83 1010 10 16 0.00 0.00
2:35 am 02:35 Clear 48 9 36 2 62 62 NW 7 11 29.83 1010 10 16 0.00 0.00
2:55 am 02:55 Clear 46 8 36 2 66 66 NW 7 11 29.83 1010 10 16 0.00 0.00
3:15 am 03:15 Clear 48 9 36 2 62 62 NNW 7 11 29.83 1010 10 16 0.00 0.00
3:35 am 03:35 Clear 48 9 36 2 62 62 NW 8 13 29.85 1011 10 16 0.00 0.00
3:55 am 03:55 Clear 50 10 36 2 58 58 NW 9 15 29.85 1011 10 16 0.00 0.00
4:15 am 04:15 Clear 50 10 36 2 58 58 NNW 9 15 29.85 1011 10 16 0.00 0.00
4:35 am 04:35 Clear 48 9 36 2 62 62 NNW 9 15 29.88 1012 10 16 0.00 0.00
4:55 am 04:55 Clear 48 9 36 2 62 62 NW 7 11 29.88 1012 10 16 0.00 0.00
5:15 am 05:15 Clear 46 8 36 2 66 66 NW 5 7 29.88 1012 10 16 0.00 0.00
5:35 am 05:35 Clear 45 7 36 2 71 71 Calm 29.94 1014 10 16 0.00 0.00
5:55 am 05:55 Clear 46 8 36 2 66 66 NW 5 7 29.91 1013 10 16 0.00 0.00
6:15 am 06:15 Clear 46 8 36 2 66 66 Calm 29.91 1013 10 16 0.00 0.00
6:35 am 06:35 Clear 45 7 36 2 71 71 WNW 3 6 29.94 1014 10 16 0.00 0.00
6:55 am 06:55 Clear 45 7 36 2 71 71 Calm 29.94 1014 10 16 0.00 0.00
7:15 am 07:15 Clear 45 7 36 2 71 71 WNW 5 7 29.94 1014 10 16 0.00 0.00
7:35 am 07:35 Clear 43 6 36 2 76 76 WNW 5 7 29.97 1015 10 16 0.00 0.00
7:55 am 07:55 Sunny 43 6 36 2 76 76 WNW 5 7 29.97 1015 10 16 0.00 0.00
8:15 am 08:15 Sunny 45 7 36 2 71 71 Calm 29.97 1015 10 16 0.00 0.00
8:35 am 08:35 Sunny 46 8 36 2 66 66 WNW 3 6 29.94 1014 9 14 0.00 0.00
8:55 am 08:55 Sunny 48 9 37 3 66 66 WNW 6 9 29.94 1014 10 16 0.00 0.00
9:15 am 09:15 Sunny 50 10 37 3 62 62 NNW 7 11 29.94 1014 10 16 0.00 0.00
9:35 am 09:35 Sunny 52 11 37 3 58 58 N 3 6 29.94 1014 10 16 0.00 0.00
9:55 am 09:55 Sunny 55 13 36 2 47 47 NE 3 6 29.91 1013 10 16 0.00 0.00
10:15 am 10:15 Sunny 57 14 36 2 44 44 E 6 9 29.91 1013 10 16 0.00 0.00
10:35 am 10:35 Sunny 57 14 36 2 44 44 E 6 9 29.91 1013 10 16 0.00 0.00
10:55 am 10:55 Sunny 61 16 36 2 39 39 E 5 7 29.88 1012 10 16 0.00 0.00
11:15 am 11:15 Sunny 61 16 37 3 42 42 ESE 5 7 29.88 1012 10 16 0.00 0.00
11:35 am 11:35 Sunny 63 17 37 3 39 39 SE 9 15 29.91 1013 10 16 0.00 0.00
11:55 am 11:55 Sunny 63 17 36 2 37 37 ESE 7 11 29.91 1013 10 16 0.00 0.00
12:15 pm 12:15 Sunny 64 18 37 3 37 37 SE 8 13 29.88 1012 10 16 0.00 0.00
12:35 pm 12:35 Sunny 66 19 37 3 35 35 ESE 9 15 29.85 1011 10 16 0.00 0.00
12:55 pm 12:55 Sunny 66 19 37 3 35 35 SE 7 11 29.85 1011 10 16 0.00 0.00
1:15 pm 13:15 Sunny 70 21 37 3 31 31 S 8 13 29.85 1011 10 16 0.00 0.00
1:35 pm 13:35 Sunny 70 21 36 2 29 29 S 3 6 29.83 1010 10 16 0.00 0.00
1:55 pm 13:55 Sunny 70 21 36 2 29 29 S 3 6 29.83 1010 10 16 0.00 0.00
2:15 pm 14:15 Sunny 72 22 36 2 27 27 SSW 6 9 29.80 1009 10 16 0.00 0.00
2:35 pm 14:35 Sunny 72 22 36 2 27 27 Calm 29.80 1009 10 16 0.00 0.00
2:55 pm 14:55 Sunny 72 22 36 2 27 27 Calm 29.80 1009 10 16 0.00 0.00
3:15 pm 15:15 Sunny 73 23 34 1 23 23 SSE 6 9 29.77 1008 10 16 0.00 0.00
3:35 pm 15:35 Sunny 73 23 36 2 25 25 S 6 9 29.77 1008 10 16 0.00 0.00
3:55 pm 15:55 Sunny 73 23 34 1 23 23 Calm 29.77 1008 10 16 0.00 0.00
4:15 pm 16:15 Sunny 73 23 34 1 23 23 SSE 7 11 29.77 1008 10 16 0.00 0.00
4:35 pm 16:35 Partly Cloudy 73 23 34 1 23 23 SSE 6 9 29.77 1008 10 16 0.00 0.00
4:55 pm 16:55 Partly Cloudy 73 23 34 1 23 23 S 9 15 29.77 1008 10 16 0.00 0.00
5:15 pm 17:15 Sunny 73 23 32 0 22 22 SSE 10 17 29.77 1008 10 16 0.00 0.00
5:35 pm 17:35 Sunny 73 23 34 1 23 23 SSE 9 15 29.77 1008 10 16 0.00 0.00
5:55 pm 17:55 Sunny 73 23 36 2 25 25 ESE 9 15 29.77 1008 10 16 0.00 0.00
6:15 pm 18:15 Sunny 73 23 34 1 23 23 SE 6 9 29.77 1008 10 16 0.00 0.00
6:35 pm 18:35 Sunny 72 22 36 2 27 27 ESE 6 9 29.80 1009 10 16 0.00 0.00
6:55 pm 18:55 Sunny 68 20 36 2 30 30 SE 6 9 29.83 1010 10 16 0.00 0.00
7:15 pm 19:15 Clear 64 18 36 2 34 34 SE 8 13 29.85 1011 10 16 0.00 0.00
7:35 pm 19:35 Clear 63 17 37 3 39 39 SE 9 15 29.85 1011 10 16 0.00 0.00
7:55 pm 19:55 Clear 61 16 37 3 42 42 SE 9 15 29.85 1011 10 16 0.00 0.00
8:15 pm 20:15 Clear 61 16 39 4 45 45 SE 8 13 29.85 1011 10 16 0.00 0.00
8:35 pm 20:35 Clear 59 15 39 4 48 48 ESE 8 13 29.85 1011 10 16 0.00 0.00
8:55 pm 20:55 Clear 57 14 39 4 51 51 ESE 8 13 29.88 1012 10 16 0.00 0.00
9:15 pm 21:15 Clear 57 14 39 4 51 51 ESE 9 15 29.88 1012 10 16 0.00 0.00
9:35 pm 21:35 Clear 55 13 39 4 55 55 ESE 8 13 29.91 1013 10 16 0.00 0.00
9:55 pm 21:55 Clear 55 13 39 4 55 55 ESE 9 15 29.91 1013 10 16 0.00 0.00
10:15 pm 22:15 Clear 55 13 41 5 59 59 ESE 10 17 29.91 1013 10 16 0.00 0.00
10:35 pm 22:35 Clear 55 13 43 6 63 63 ESE 10 17 29.91 1013 10 16 0.00 0.00
10:55 pm 22:55 Clear 55 13 43 6 63 63 ESE 9 15 29.91 1013 10 16 0.00 0.00
11:15 pm 23:15 Clear 55 13 43 6 63 63 ESE 9 15 29.91 1013 10 16 0.00 0.00
11:35 pm 23:35 Clear 55 13 43 6 63 63 ESE 9 15 29.91 1013 10 16 0.00 0.00
11:55 pm 23:55 Clear 52 11 41 5 67 67 ESE 3 6 29.94 1014 10 16 0.00 0.00

Powered by AerisWeather